EW9733 Weather Reports


time (UTC)temp
C
wind
direction
speed
KPH
gust
KPH
rain 1hr
cm
rain 24hr
cm
rain mn
cm
humidity
%
barometer
mb
20260902113106 16 121 0.0 0.0 0.00 0.13 0.00 94 1020.5
20260902111556 16 121 0.0 0.0 0.00 0.13 0.00 94 1020.4
20260902110022 16 121 0.0 0.0 0.00 0.13 0.00 94 1020.2
20260902104534 15 121 0.0 0.0 0.00 0.13 0.00 94 1019.9
20260902103016 15 121 0.0 0.0 0.00 0.13 0.00 93 1019.7
20260902101514 15 121 0.0 0.0 0.00 0.13 0.00 93 1019.6
20260902100013 15 121 0.0 0.0 0.00 0.13 0.00 93 1019.5
20260902094518 15 121 0.0 0.0 0.00 0.13 0.00 93 1019.6
20260902093011 15 121 0.0 0.0 0.00 0.13 0.00 93 1019.5
20260902091508 15 121 0.0 0.0 0.00 0.13 0.00 93 1019.4
20260902090007 15 121 0.0 0.0 0.00 0.13 0.00 93 1019.2
20260902084505 15 121 0.0 0.0 0.00 0.13 0.00 93 1019.0
20260902083004 16 121 0.0 0.0 0.00 0.13 0.00 93 1019.2
20260902081513 16 121 0.0 0.0 0.00 0.13 0.00 93 1019.1
20260902080005 16 121 0.0 0.0 0.00 0.13 0.00 93 1019.2
20260902074501 16 121 0.0 0.0 0.00 0.13 0.00 93 1019.3
20260902073101 16 121 0.0 0.0 0.00 0.13 0.00 93 1019.2
20260902071601 16 121 0.0 0.0 0.00 0.13 0.00 93 1019.0
20260902070104 16 121 0.0 0.0 0.00 0.13 0.00 93 1019.0
20260902064605 16 121 0.0 0.0 0.00 0.13 0.00 93 1019.0
20260902063057 16 121 0.0 0.0 0.00 0.13 0.00 93 1019.0
20260902061612 16 121 0.0 0.0 0.00 0.13 0.00 93 1019.0
20260902060058 16 121 0.0 0.0 0.00 0.13 0.00 93 1019.2
20260902054601 16 121 0.0 0.0 0.00 0.13 0.00 92 1019.1
20260902053055 16 121 0.0 0.0 0.00 0.13 0.00 92 1019.1
20260902051556 16 121 0.0 0.0 0.00 0.13 0.00 92 1019.0
20260902050100 16 121 0.0 0.0 0.00 0.13 0.00 92 1018.8
20260902044548 16 121 0.0 0.0 0.00 0.13 0.00 92 1018.6
20260902043045 16 121 0.0 0.0 0.00 0.13 0.00 92 1018.1
20260902041556 16 121 0.0 0.0 0.00 0.13 0.00 92 1017.9
20260902040042 16 121 0.0 0.0 0.00 0.13 0.00 92 1018.2
20260902034544 16 121 0.0 0.0 0.00 0.13 0.13 92 1018.0
20260902033045 16 121 0.0 0.0 0.00 0.13 0.13 91 1017.7
20260902031540 16 121 0.0 0.0 0.00 0.13 0.13 91 1018.0
20260902030041 16 121 0.0 0.0 0.00 0.13 0.13 91 1018.1
20260902024542 16 121 0.0 0.0 0.00 0.13 0.13 90 1018.0
20260902023037 16 121 0.0 0.0 0.00 0.13 0.13 90 1018.0
20260902021546 16 121 0.0 0.0 0.00 0.13 0.13 90 1017.8
20260902020034 16 121 0.0 0.0 0.00 0.13 0.13 90 1018.0
20260902014537 17 121 0.0 0.0 0.00 0.13 0.13 90 1017.9
20260902013032 17 121 0.0 0.0 0.00 0.13 0.13 90 1017.7
20260902011536 17 121 0.0 0.0 0.00 0.13 0.13 89 1017.8
20260902010042 17 121 0.0 0.0 0.00 0.13 0.13 89 1017.7
20260902004533 17 121 0.0 0.0 0.00 0.13 0.13 89 1017.3
20260902003025 17 121 0.0 0.0 0.00 0.13 0.13 89 1017.3
20260902001524 17 121 0.0 0.0 0.00 0.13 0.13 88 1017.4
20260902000036 17 121 0.0 0.0 0.00 0.13 0.13 88 1017.6
20260901234546 18 121 0.0 0.0 0.00 0.13 0.13 88 1017.4
20260901233019 18 121 0.0 0.0 0.00 0.13 0.13 88 1017.3
20260901231519 18 121 0.0 0.0 0.00 0.13 0.13 87 1017.3
20260901230017 18 121 0.0 0.0 0.00 0.13 0.13 87 1017.1
20260901224517 18 121 0.0 0.0 0.00 0.13 0.13 86 1017.1
20260901223027 18 120 0.0 3.2 0.00 0.13 0.13 86 1017.1
20260901221522 18 120 0.0 1.6 0.00 0.13 0.13 86 1017.2
20260901220018 18 119 0.0 0.0 0.00 0.13 0.13 85 1017.3
20260901214512 18 119 0.0 1.6 0.00 0.13 0.13 84 1017.1
20260901213011 19 119 0.0 0.0 0.00 0.13 0.13 84 1017.1
20260901211513 19 119 0.0 0.0 0.00 0.13 0.13 84 1017.0
20260901210010 19 119 0.0 0.0 0.00 0.13 0.13 83 1016.9
20260901204508 18 119 0.0 1.6 0.00 0.13 0.13 84 1016.8
20260901203017 19 119 0.0 3.2 0.00 0.13 0.13 84 1016.6
20260901201508 18 119 0.0 6.4 0.00 0.13 0.13 84 1016.5
20260901200020 19 117 0.0 1.6 0.00 0.13 0.13 85 1016.5
20260901194507 19 124 0.0 3.2 0.00 0.13 0.13 86 1016.5
20260901193007 18 123 0.0 6.4 0.00 0.13 0.13 85 1016.5
20260901191512 19 133 0.0 3.2 0.00 0.13 0.13 87 1016.4
20260901190017 19 132 0.0 4.8 0.03 0.13 0.13 87 1016.3
20260901184505 20 136 0.0 9.7 0.03 0.13 0.13 87 1016.3
20260901183013 20 121 0.0 4.8 0.03 0.13 0.13 87 1016.2
20260901181505 20 82 0.0 1.6 0.03 0.13 0.13 87 1016.1
20260901180003 20 82 0.0 0.0 0.00 0.10 0.10 86 1016.0
20260901174504 20 82 0.0 1.6 0.00 0.10 0.10 85 1015.9
20260901173003 21 96 0.0 4.8 0.00 0.10 0.10 86 1015.7
20260901171502 21 61 0.0 8.0 0.00 0.10 0.10 84 1016.0
20260901170104 21 46 1.6 8.0 0.00 0.10 0.10 82 1016.1
20260901164633 21 71 0.0 3.2 0.00 0.10 0.10 81 1016.0
20260901163100 21 89 0.0 8.0 0.03 0.10 0.10 82 1015.7
20260901161600 21 147 0.0 3.2 0.03 0.10 0.10 83 1016.0
20260901160100 21 101 0.0 8.0 0.03 0.10 0.10 84 1016.0
20260901154554 21 46 0.0 9.7 0.03 0.10 0.10 86 1016.1
20260901153051 21 98 1.6 4.8 0.00 0.08 0.08 89 1016.3
20260901151549 20 131 0.0 4.8 0.00 0.08 0.08 90 1016.2
20260901150045 20 47 0.0 4.8 0.00 0.08 0.08 90 1016.5
20260901144543 20 77 1.6 6.4 0.00 0.08 0.08 90 1016.6
20260901143045 20 52 0.0 4.8 0.03 0.08 0.08 91 1016.6
20260901141552 20 88 0.0 3.2 0.03 0.08 0.08 91 1016.6
20260901140043 19 137 0.0 0.0 0.08 0.08 0.08 91 1016.8
20260901134539 19 137 0.0 0.0 0.08 0.08 0.08 91 1016.7
20260901133041 19 137 0.0 0.0 0.05 0.05 0.05 91 1016.6
20260901131535 19 137 0.0 0.0 0.03 0.03 0.03 90 1016.8
20260901130031 18 137 0.0 0.0 0.00 0.00 0.00 90 1016.6
20260901124530 18 137 0.0 1.6 0.00 0.00 0.00 90 1016.5
20260901123029 18 137 0.0 0.0 0.00 0.00 0.00 90 1016.7
20260901121529 18 137 0.0 0.0 0.00 0.00 0.00 90 1016.5
20260901120028 18 137 0.0 0.0 0.00 0.00 0.00 90 1016.4
20260901114526 18 137 0.0 0.0 0.00 0.00 0.00 90 1016.4